Regional Weather Roundup
Issued by NWS Bismarck, ND

Home | Current Version | Previous Version | Text Only | Print | Product List | Glossary On
Versions: 1 2 3 4 5 6 7 8 9 10 11 12 13 14 15 16 17 18 19 20 21 22 23 24 25 26 27 28 29 30 31 32 33 34 35 36 37 38 39 40 41 42 43 44 45 46 47 48 49 50
000
ASUS43 KBIS 270410
RWRBIS

NWR BROADCAST TEXT
NATIONAL WEATHER SERVICE BISMARCK ND
1100 PM CDT TUE MAY 26 2015

NOTE: "FAIR" INDICATES FEW OR NO CLOUDS BELOW 12,000 FEET WITH NO
SIGNIFICANT WEATHER AND/OR OBSTRUCTIONS TO VISIBILITY.


CITY           SKY/WX    TMP DP  RH WIND       PRES   REMARKS
WILLISTON      MOCLDY    67  44  43 E9        29.90R
MINOT          PTCLDY    61  47  59 SW10      29.87R
MINOT AFB      PTCLDY    59  55  88 SW8       29.86R
BISMARCK       CLEAR     61  52  72 CALM      29.91R
DICKINSON      PTCLDY    55  43  63 S8        29.93R
GARRISON         N/A     59  48  67 N3        29.90R
HETTINGER ARPT PTCLDY    51  46  83 CALM      29.97R
JAMESTOWN      PTCLDY    65  45  48 NW13      29.84R
BEACH          FAIR      54  48  82 S7        29.95R
CARRINGTON     FAIR      59  54  82 W10       29.88R
CROSBY         FAIR      57  48  72 SW9       29.89S
HARVEY         FAIR      64  45  48 W6        29.86S
HAZEN          MOCLDY    59  48  67 CALM      29.92R
LINTON         FAIR      61  54  77 S7        29.91S
MANDAN         FAIR      59  48  67 SW7       29.92S
OAKES            N/A     59  55  88 W9        29.85S
STANLEY        MOCLDY    63  48  59 SW5       29.92S
WATFORD CITY   MOCLDY    68  45  42 E12       29.89R
$$

CITY           SKY/WX    TMP DP  RH WIND       PRES   REMARKS
GRAND FORKS    PTCLDY    62  52  69 W7        29.76R
GRAND FORKS AF MOCLDY    66  50  55 W6        29.77R
DEVILS LAKE    CLEAR     64  46  52 NW9       29.84R
FARGO          PTCLDY    63  53  70 SW7       29.79R
CANDO          FAIR      63  45  51 N7        29.86R
CAVALIER       FAIR      70  45  40 N7        29.78R
GRAFTON        FAIR      66  50  55 W8        29.78R
LANGDON        FAIR      63  41  45 NW6       29.83R
ROLLA          FAIR      59  43  55 N6        29.87R
WALHALLA         N/A     68  41  37 MISG      29.79S
$$

CITY           SKY/WX    TMP DP  RH WIND       PRES   REMARKS
ABERDEEN       MOCLDY    58  53  84 SE3       29.88R
MOBRIDGE       MOCLDY    63  54  72 SE5       29.90R
BUFFALO          N/A     59  47  64 S6        29.91R
RAPID CITY     MOCLDY    56  49  77 W6        29.99R
GLASGOW        PTCLDY    64  43  46 SW5       29.88R
SIDNEY         MOCLDY    61  48  63 CALM      29.90R
WOLF POINT     MOCLDY    63  50  62 CALM      29.87R
GLENDIVE       PTCLDY    63  48  59 S7        29.92R
MILES CITY     CLOUDY    65  49  56 S8        29.90R
BAKER          PTCLDY    53  47  79 S8        29.95R
$$

CITY           SKY/WX    TMP DP  RH WIND       PRES   REMARKS
BILLINGS       PTCLDY    56  51  84 SW8       29.96R
GREAT FALLS    PTCLDY    55  48  77 NE7       29.97R
REGINA         MOCLDY    64  41  42 N10       29.86R
ESTEVAN        PTCLDY    61  48  63 S8        29.88R
$$




USA.gov is the U.S. government's official web portal to all federal, state and local government web resources and services.